Weather History for LFSB - November, 2012

Change the Weather History Date:

Thursday, November 1, 2012

  Actual Average (WUND) Record (WUND)
Temperature  
Mean Temperature 50 °F -  
Max Temperature 61 °F 46 °F - (-1)
Min Temperature 40 °F 34 °F - (-1)
Degree Days  
Heating Degree Days 14    
Moisture  
Dew Point 39 °F    
Average Humidity 73    
Maximum Humidity 87    
Minimum Humidity 38    
Precipitation  
Precipitation 0.02 in - - ()
Sea Level Pressure  
Sea Level Pressure 29.33 in    
Wind  
Wind Speed 5 mph ()    
Max Wind Speed 17 mph    
Max Gust Speed 29 mph    
Visibility 6.6 miles    
Events Rain    
Averages and records for this station are not official NWS values.
T = Trace of Precipitation, MM = Missing Value Source: Averaged Metar Reports

Daily Weather History Graph

Daily Weather History Graph

Search for Another Location

Airport or City:

Trip Planner

Search our weather history database for the weather conditions in past years. The results will help you decide how hot, cold, wet, or windy it might be!

Date:

Astronomy

Nov. 01, 2012 Rise Set
Actual Time 7:14 AM CET 5:11 PM CET
Civil Twilight 6:42 AM CET 5:44 PM CET
Nautical Twilight 6:05 AM CET 6:20 PM CET
Astronomical Twilight 5:29 AM CET 6:56 PM CET
Moon 6:47 PM CET (11/1) 9:42 AM CET (11/1)
Length of Visible Light 11h 02m
Length of Day
9h 57m
Waning Gibbous, 94% of the Moon is Illuminated
Nov 1
Waning Gibbous
Nov 7
Last Quarter
Nov 13
New
Nov 20
First Quarter
Nov 28
Full

Hourly Weather History & Observations

Time (CET) Temp. Windchill Dew Point Humidity Pressure Visibility Wind Dir Wind Speed Gust Speed Precip Events Conditions
12:00 AM 41.0 °F - 37.4 °F 87% 29.36 in - Variable 1.2 mph - N/A   Clear
12:30 AM 41.0 °F - 37.4 °F 87% 29.33 in 6.2 mi Variable 2.3 mph - N/A   Unknown
1:00 AM 41 °F - 37 °F 80% 29.37 in 6 mi SSW 4.6 mph - -   Clear
1:00 AM 41.0 °F 38.0 °F 37.4 °F 87% 29.33 in 6.2 mi SSW 4.6 mph - N/A   Unknown
1:30 AM 41.0 °F 39.0 °F 37.4 °F 87% 29.33 in 6.2 mi SSE 3.5 mph - N/A   Unknown
2:00 AM 41.0 °F - 37.4 °F 87% 29.33 in 6.2 mi Variable 2.3 mph - N/A   Unknown
2:30 AM 41.0 °F 39.0 °F 37.4 °F 87% 29.33 in 6.2 mi SE 3.5 mph - N/A   Unknown
3:00 AM 41.0 °F 39.0 °F 37.4 °F 87% 29.33 in 6.2 mi Variable 3.5 mph - N/A   Unknown
3:30 AM 42.8 °F 38.0 °F 37.4 °F 81% 29.30 in - SE 8.1 mph - N/A   Clear
4:00 AM 42.8 °F 41.1 °F 37.4 °F 81% 29.30 in - South 3.5 mph - N/A   Clear
4:30 AM 41.0 °F 38.0 °F 37.4 °F 87% 29.30 in - SSW 4.6 mph - N/A   Clear
5:00 AM 41.0 °F 38.0 °F 37.4 °F 87% 29.30 in - South 4.6 mph - N/A   Clear
5:30 AM 42.8 °F 39.3 °F 37.4 °F 81% 29.30 in - South 5.8 mph - N/A   Clear
6:00 AM 41.0 °F 37.1 °F 37.4 °F 87% 29.30 in - SW 5.8 mph - N/A   Clear
6:30 AM 41.0 °F 36.4 °F 37.4 °F 87% 29.30 in - SE 6.9 mph - N/A   Clear
7:00 AM 41 °F - 37 °F 80% 29.34 in 8 mi SSE 5.8 mph - -   Overcast
7:00 AM 41.0 °F - 37.4 °F 87% 29.30 in - North - - N/A   Clear
7:30 AM 41.0 °F 37.1 °F 37.4 °F 87% 29.30 in - SSE 5.8 mph - N/A   Clear
8:00 AM 42.8 °F 38.6 °F 37.4 °F 81% 29.30 in - SSE 6.9 mph - N/A   Clear
8:30 AM 42.8 °F 38.6 °F 37.4 °F 81% 29.30 in - SE 6.9 mph - N/A   Clear
9:00 AM 44.6 °F 40.7 °F 37.4 °F 76% 29.30 in - SE 6.9 mph - N/A   Clear
9:30 AM 44.6 °F 42.2 °F 37.4 °F 76% 29.30 in - SE 4.6 mph - N/A   Clear
10:00 AM 48.2 °F - 37.4 °F 66% 29.30 in - ESE 6.9 mph - N/A   Clear
10:30 AM 50.0 °F - 37.4 °F 62% 29.30 in 6.2 mi SE 8.1 mph - N/A   Mostly Cloudy
11:00 AM 50.0 °F - 37.4 °F 62% 29.30 in 6.2 mi SE 10.4 mph - N/A   Mostly Cloudy
11:30 AM 53.6 °F - 37.4 °F 54% 29.30 in 6.2 mi SE 10.4 mph - N/A   Mostly Cloudy
12:00 PM 55.4 °F - 39.2 °F 54% 29.27 in 6.2 mi SE 10.4 mph - N/A   Mostly Cloudy
12:30 PM 57.2 °F - 39.2 °F 51% 29.27 in 6.2 mi ESE 6.9 mph - N/A   Mostly Cloudy
1:00 PM 58 °F - 39 °F 38% 29.25 in 19 mi SE 9.2 mph - -   Scattered Clouds
1:00 PM 59.0 °F - 39.2 °F 48% 29.24 in 6.2 mi SE 10.4 mph - N/A   Mostly Cloudy
1:30 PM 59.0 °F - 37.4 °F 45% 29.24 in 6.2 mi SW 9.2 mph - N/A   Mostly Cloudy
2:00 PM 59.0 °F - 41.0 °F 51% 29.24 in 6.2 mi SSW 11.5 mph - N/A   Mostly Cloudy
2:30 PM 57.2 °F - 39.2 °F 51% 29.27 in 6.2 mi SW 12.7 mph - N/A Rain Light Rain
3:00 PM 53.6 °F - 42.8 °F 67% 29.30 in 6.2 mi West 17.3 mph - N/A Rain Light Rain
3:30 PM 51.8 °F - 44.6 °F 76% 29.30 in 6.2 mi SSW 5.8 mph - N/A   Mostly Cloudy
4:00 PM 53.6 °F - 42.8 °F 67% 29.30 in 6.2 mi South 3.5 mph - N/A   Mostly Cloudy
4:30 PM 53.6 °F - 41.0 °F 62% 29.30 in 6.2 mi Variable 3.5 mph - N/A   Mostly Cloudy
5:00 PM 53.6 °F - 41.0 °F 62% 29.30 in 6.2 mi SW 8.1 mph - N/A   Mostly Cloudy
5:30 PM 53.6 °F - 39.2 °F 58% 29.33 in 6.2 mi WSW 6.9 mph - N/A Rain Light Rain
6:00 PM 51.8 °F - 41.0 °F 67% 29.33 in 6.2 mi WSW 5.8 mph - N/A Rain Light Rain
6:30 PM 51.8 °F - 41.0 °F 67% 29.33 in 6.2 mi SW 5.8 mph - N/A Rain Light Rain
7:00 PM 51 °F - 41 °F 58% 29.37 in 9 mi West 3.5 mph - - Rain Light Rain
7:00 PM 51.8 °F - 41.0 °F 67% 29.36 in 6.2 mi West 3.5 mph - N/A Rain Light Rain
7:30 PM 50.0 °F - 42.8 °F 76% 29.39 in 6.2 mi West 5.8 mph - N/A Rain Light Rain
8:00 PM 50.0 °F - 42.8 °F 76% 29.39 in 6.2 mi West 8.1 mph - N/A Rain Light Rain
8:30 PM 50.0 °F - 42.8 °F 76% 29.39 in 6.2 mi West 4.6 mph - N/A Rain Light Rain
9:00 PM 48.2 °F - 44.6 °F 87% 29.42 in 5.0 mi West 9.2 mph - N/A Rain Rain
9:30 PM 46.4 °F 39.8 °F 41.0 °F 81% 29.44 in 5.0 mi West 16.1 mph - N/A Rain Light Rain
10:00 PM 46.4 °F 39.8 °F 41.0 °F 81% 29.44 in 5.0 mi WSW 16.1 mph 28.8 mph N/A Rain Light Rain
10:30 PM 46.4 °F 40.4 °F 39.2 °F 76% 29.47 in 6.2 mi SW 13.8 mph - N/A Rain Light Rain
11:00 PM 46.4 °F 40.7 °F 39.2 °F 76% 29.47 in 6.2 mi West 12.7 mph - N/A   Mostly Cloudy
11:30 PM 46.4 °F 41.9 °F 39.2 °F 76% 29.50 in 6.2 mi West 9.2 mph - N/A   Mostly Cloudy